Regional Weather Roundup
Issued by NWS

Home | Current Version | Previous Version | Text Only | Print | Product List | Glossary Off
Versions: 1 2 3 4 5 6 7 8 9 10 11 12 13 14 15 16 17 18 19 20 21 22 23 24 25 26 27 28 29 30 31 32 33 34 35 36 37 38 39 40 41 42 43 44 45 46 47 48 49 50

000
ASUS44 KMEG 262010
RWRTN
TENNESSEE HOURLY STATE WEATHER ROUNDUP
NATIONAL WEATHER SERVICE MEMPHIS TN
300 PM CDT FRI AUG 26 2016

TNZ002-004-019-021-049-052-054-088>092-262100-
WEST TENNESSEE

CITY           SKY/WX    TMP DP  RH WIND       PRES   REMARKS
MEMPHIS INTL   CLOUDY    80  73  79 SE6       30.03F
NWS MEMPHIS      N/A     75 N/A N/A MISG        N/A
JACKSON        LGT RAIN  77  74  90 NE13      30.05R
DYERSBURG      CLOUDY    91  77  62 MISG      30.00F HX 105
UNION CITY     MOSUNNY   90  75  62 NE6       30.01F HX 100
PARIS          MOSUNNY   86  75  70 E6        30.06S HX  95
$$

TNZ008-025-027-028-033-062-065-066-262100-
NORTH MIDDLE TENNESSEE

CITY           SKY/WX    TMP DP  RH WIND       PRES   REMARKS
NASHVILLE      MOSUNNY   94  71  47 E10       30.05F HX 101
CLARKSVILLE    PTSUNNY   90  73  57 E7        30.05S HX  98
SMYRNA         MOSUNNY   91  72  52 MISG      30.06F HX  98
COOKEVILLE     SUNNY     93  73  52 NE7       30.06F HX 102
CROSSVILLE     MOSUNNY   89  68  49 E10       30.13F HX  93
$$

TNZ061-075-076-078-094-096-097-262100-
SOUTH MIDDLE TENNESSEE

CITY           SKY/WX    TMP DP  RH WIND       PRES   REMARKS
FAYETTEVILLE   MOSUNNY   91  72  52 E8G16     30.04F HX  98
TULLAHOMA      MOSUNNY   90  66  45 E6        30.07S HX  92
WINCHESTER     SUNNY     93  72  49 E5        30.04F HX 100
MCMINNVILLE    SUNNY     91  75  59 NE8       30.07S HX 102
COLUMBIA       MOSUNNY   93  77  59 E6        30.02F HX 107
SHELBYVILLE    SUNNY     95  75  52 NE9       30.05F HX 107
$$

TNZ017-018-042-046-047-262100-
NORTHEAST TENNESSEE

CITY           SKY/WX    TMP DP  RH WIND       PRES   REMARKS
TRI CITIES     MOSUNNY   91  66  43 CALM      30.13F HX  93
ELIZABETHTON   SUNNY     90  68  48 W7        30.13F HX  93
$$

TNZ012-013-036-069-073-074-262100-
CENTRAL EAST TENNESSEE

CITY           SKY/WX    TMP DP  RH WIND       PRES   REMARKS
KNOXVILLE      MOSUNNY   94  66  39 E14G22    30.06F HX  97
GATLINBURG     SUNNY     91  68  46 E10       30.07F HX  95
MORRISTOWN     PTSUNNY   91  70  49 E8        30.10F HX  97
$$

TNZ083-085-099-262100-
SOUTHEAST TENNESSEE

CITY           SKY/WX    TMP DP  RH WIND       PRES   REMARKS
CHATTANOOGA    PTSUNNY   94  69  44 N10G18    30.02F HX  99
$$

SKY/WX REPORTED AS FAIR MEANS FEW OR NO CLOUDS BELOW
12 THOUSAND FEET.





USA.gov is the U.S. government's official web portal to all federal, state and local government web resources and services.